Time,TemperatureF,DewpointF,PressureIn,WindDirection,WindDirectionDegrees,WindSpeedMPH,WindSpeedGustMPH,Humidity,HourlyPrecipIn,Conditions,Clouds,dailyrainin,SoftwareType,DateUTC
2013-08-16 00:00:00,75.8,64.9,29.98,SE,135,2.0,2.0,69,0.00,,,0.00,Wunderground v.1.15,2013-08-16 05:00:00,
2013-08-16 00:10:00,75.6,65.1,29.98,SE,135,1.0,1.0,70,0.00,,,0.00,Wunderground v.1.15,2013-08-16 05:10:00,
2013-08-16 00:20:00,75.5,65.0,29.98,SE,135,1.0,1.0,70,0.00,,,0.00,Wunderground v.1.15,2013-08-16 05:20:00,
2013-08-16 00:30:00,75.4,64.9,29.98,SSE,165,2.0,3.0,70,0.00,,,0.00,Wunderground v.1.15,2013-08-16 05:30:00,
2013-08-16 00:35:00,75.3,64.4,29.97,South,171,2.0,4.0,69,0.00,,,0.00,Wunderground v.1.15,2013-08-16 05:35:00,
2013-08-16 00:40:00,75.3,64.8,29.97,SE,134,2.0,2.0,70,0.00,,,0.00,Wunderground v.1.15,2013-08-16 05:40:00,
2013-08-16 00:45:00,75.1,64.6,29.97,SE,133,2.0,4.0,70,0.00,,,0.00,Wunderground v.1.15,2013-08-16 05:45:00,
2013-08-16 00:50:00,75.0,64.5,29.98,SE,127,2.0,2.0,70,0.00,,,0.00,Wunderground v.1.15,2013-08-16 05:50:00,
2013-08-16 00:55:00,74.8,64.4,29.98,SE,127,2.0,2.0,70,0.00,,,0.00,Wunderground v.1.15,2013-08-16 05:55:00,
2013-08-16 01:05:00,74.3,64.7,29.99,SE,125,1.0,2.0,72,0.00,,,0.00,Wunderground v.1.15,2013-08-16 06:05:00,
2013-08-16 01:15:00,74.0,64.8,29.99,ESE,118,2.0,2.0,73,0.00,,,0.00,Wunderground v.1.15,2013-08-16 06:15:00,
2013-08-16 01:20:00,73.9,64.7,29.99,ENE,72,2.0,2.0,73,0.00,,,0.00,Wunderground v.1.15,2013-08-16 06:20:00,
2013-08-16 01:25:00,73.9,64.7,29.99,ENE,72,2.0,2.0,73,0.00,,,0.00,Wunderground v.1.15,2013-08-16 06:25:00,
2013-08-16 01:30:00,73.7,64.9,29.99,ENE,76,1.0,3.0,74,0.00,,,0.00,Wunderground v.1.15,2013-08-16 06:30:00,
2013-08-16 01:40:00,73.0,65.0,30.00,NE,42,3.0,4.0,76,0.00,,,0.00,Wunderground v.1.15,2013-08-16 06:40:00,
2013-08-16 01:50:00,72.4,65.5,29.99,NE,45,3.0,4.0,79,0.00,,,0.00,Wunderground v.1.15,2013-08-16 06:50:00,
2013-08-16 02:00:00,72.0,65.5,30.00,NNE,31,2.0,4.0,80,0.00,,,0.00,Wunderground v.1.15,2013-08-16 07:00:00,
2013-08-16 02:05:00,71.7,65.2,30.00,NE,42,3.0,4.0,80,0.00,,,0.00,Wunderground v.1.15,2013-08-16 07:05:00,
2013-08-16 02:10:00,71.7,65.6,30.00,NE,39,3.0,7.0,81,0.00,,,0.00,Wunderground v.1.15,2013-08-16 07:10:00,
2013-08-16 02:20:00,71.7,63.0,30.05,NE,35,13.0,13.0,74,0.00,,,0.00,Wunderground v.1.15,2013-08-16 07:20:00,
2013-08-16 02:25:00,71.3,62.2,30.06,NNE,27,16.0,27.0,73,0.00,,,0.00,Wunderground v.1.15,2013-08-16 07:25:00,
2013-08-16 02:30:00,70.1,61.8,30.07,NNE,13,16.0,19.0,75,0.00,,,0.00,Wunderground v.1.15,2013-08-16 07:30:00,
2013-08-16 02:35:00,68.6,61.8,30.08,NE,36,17.0,19.0,79,0.00,,,0.00,Wunderground v.1.15,2013-08-16 07:35:00,
2013-08-16 02:45:00,66.7,62.0,30.08,North,360,14.0,22.0,85,0.00,,,0.00,Wunderground v.1.15,2013-08-16 07:45:00,
2013-08-16 02:50:00,66.4,62.1,30.09,NE,53,13.0,13.0,86,0.00,,,0.00,Wunderground v.1.15,2013-08-16 07:50:00,
2013-08-16 03:00:00,65.9,61.9,30.08,ENE,60,13.0,13.0,87,0.00,,,0.00,Wunderground v.1.15,2013-08-16 08:00:00,
2013-08-16 03:05:00,65.7,61.7,30.07,NE,41,13.0,13.0,87,0.00,,,0.01,Wunderground v.1.15,2013-08-16 08:05:00,
2013-08-16 03:10:00,65.3,62.0,30.06,ENE,58,12.0,12.0,89,0.18,,,0.02,Wunderground v.1.15,2013-08-16 08:10:00,
2013-08-16 03:15:00,64.9,61.9,30.06,NE,51,12.0,16.0,90,0.14,,,0.03,Wunderground v.1.15,2013-08-16 08:15:00,
2013-08-16 03:20:00,64.6,61.6,30.05,East,83,11.0,16.0,90,0.08,,,0.03,Wunderground v.1.15,2013-08-16 08:20:00,
2013-08-16 03:30:00,64.7,62.0,30.05,NNE,26,6.0,6.0,91,0.06,,,0.04,Wunderground v.1.15,2013-08-16 08:30:00,
2013-08-16 03:35:00,64.7,62.0,30.05,ENE,76,6.0,6.0,91,0.04,,,0.04,Wunderground v.1.15,2013-08-16 08:35:00,
2013-08-16 03:40:00,64.8,62.1,30.04,East,86,6.0,8.0,91,0.00,,,0.04,Wunderground v.1.15,2013-08-16 08:40:00,
2013-08-16 03:45:00,64.9,62.2,30.03,East,98,7.0,15.0,91,0.00,,,0.04,Wunderground v.1.15,2013-08-16 08:45:00,
2013-08-16 03:55:00,64.7,62.0,30.01,SE,131,7.0,7.0,91,0.00,,,0.05,Wunderground v.1.15,2013-08-16 08:55:00,
2013-08-16 04:00:00,64.6,61.9,29.99,SSE,148,7.0,7.0,91,0.00,,,0.05,Wunderground v.1.15,2013-08-16 09:00:00,
2013-08-16 04:05:00,64.5,61.8,29.99,South,169,6.0,7.0,91,0.00,,,0.05,Wunderground v.1.15,2013-08-16 09:05:00,
2013-08-16 04:10:00,64.6,62.2,29.98,South,172,4.0,5.0,92,0.00,,,0.05,Wunderground v.1.15,2013-08-16 09:10:00,
2013-08-16 04:15:00,64.7,62.3,29.97,South,187,5.0,10.0,92,0.00,,,0.05,Wunderground v.1.15,2013-08-16 09:15:00,
2013-08-16 04:25:00,64.5,62.1,29.94,SSE,163,7.0,8.0,92,0.00,,,0.06,Wunderground v.1.15,2013-08-16 09:25:00,
2013-08-16 04:35:00,64.4,62.3,29.95,SSE,161,7.0,7.0,93,0.00,,,0.06,Wunderground v.1.15,2013-08-16 09:35:00,
2013-08-16 04:40:00,64.5,62.4,29.96,SSE,164,6.0,7.0,93,0.00,,,0.06,Wunderground v.1.15,2013-08-16 09:40:00,
2013-08-16 04:50:00,64.4,62.3,29.99,SSE,159,4.0,5.0,93,0.00,,,0.06,Wunderground v.1.15,2013-08-16 09:50:00,
2013-08-16 05:00:00,64.6,62.5,29.98,SE,132,4.0,4.0,93,0.00,,,0.06,Wunderground v.1.15,2013-08-16 10:00:00,
2013-08-16 05:05:00,64.5,62.4,29.98,SE,143,4.0,6.0,93,0.00,,,0.06,Wunderground v.1.15,2013-08-16 10:05:00,
2013-08-16 05:10:00,64.3,62.2,29.98,ESE,123,5.0,5.0,93,0.00,,,0.06,Wunderground v.1.15,2013-08-16 10:10:00,
2013-08-16 05:15:00,64.4,62.3,29.99,SE,129,5.0,5.0,93,0.00,,,0.06,Wunderground v.1.15,2013-08-16 10:15:00,
2013-08-16 05:20:00,64.4,62.3,29.99,South,186,5.0,7.0,93,0.00,,,0.06,Wunderground v.1.15,2013-08-16 10:20:00,
2013-08-16 05:25:00,64.4,62.3,29.98,South,176,5.0,7.0,93,0.00,,,0.06,Wunderground v.1.15,2013-08-16 10:25:00,
2013-08-16 05:35:00,64.5,62.4,29.99,South,188,6.0,6.0,93,0.00,,,0.06,Wunderground v.1.15,2013-08-16 10:35:00,
2013-08-16 05:40:00,64.5,62.4,29.99,South,172,6.0,6.0,93,0.00,,,0.06,Wunderground v.1.15,2013-08-16 10:40:00,
2013-08-16 05:50:00,64.8,63.0,30.00,South,188,4.0,4.0,94,0.00,,,0.06,Wunderground v.1.15,2013-08-16 10:50:00,
2013-08-16 05:55:00,65.0,62.9,30.00,South,188,2.0,4.0,93,0.00,,,0.06,Wunderground v.1.15,2013-08-16 10:55:00,
2013-08-16 06:00:00,65.1,63.0,30.00,South,188,1.0,1.0,93,0.00,,,0.06,Wunderground v.1.15,2013-08-16 11:00:00,
2013-08-16 06:05:00,65.2,63.4,30.00,South,170,1.0,1.0,94,0.00,,,0.06,Wunderground v.1.15,2013-08-16 11:05:00,
2013-08-16 06:10:00,65.2,63.4,30.00,SSW,196,2.0,4.0,94,0.00,,,0.06,Wunderground v.1.15,2013-08-16 11:10:00,
2013-08-16 06:15:00,65.3,63.5,30.00,South,191,3.0,4.0,94,0.00,,,0.06,Wunderground v.1.15,2013-08-16 11:15:00,
2013-08-16 06:20:00,65.2,63.1,30.00,SSW,211,3.0,4.0,93,0.00,,,0.06,Wunderground v.1.15,2013-08-16 11:20:00,
2013-08-16 06:30:00,65.0,62.9,30.00,South,180,3.0,3.0,93,0.00,,,0.06,Wunderground v.1.15,2013-08-16 11:30:00,
2013-08-16 06:35:00,65.1,63.0,30.00,South,179,3.0,3.0,93,0.00,,,0.06,Wunderground v.1.15,2013-08-16 11:35:00,
2013-08-16 06:40:00,65.0,62.9,30.00,SSW,203,3.0,3.0,93,0.00,,,0.06,Wunderground v.1.15,2013-08-16 11:40:00,
2013-08-16 06:50:00,65.0,62.9,30.00,SSW,202,3.0,3.0,93,0.00,,,0.06,Wunderground v.1.15,2013-08-16 11:50:00,
2013-08-16 06:55:00,65.0,62.9,30.00,SSW,198,2.0,3.0,93,0.00,,,0.06,Wunderground v.1.15,2013-08-16 11:55:00,
2013-08-16 07:00:00,64.9,62.8,30.01,SSW,198,2.0,2.0,93,0.00,,,0.06,Wunderground v.1.15,2013-08-16 12:00:00,
2013-08-16 07:05:00,64.9,62.8,30.01,SSW,198,2.0,2.0,93,0.00,,,0.06,Wunderground v.1.15,2013-08-16 12:05:00,
2013-08-16 07:15:00,65.0,62.9,30.01,SSW,198,1.0,2.0,93,0.00,,,0.06,Wunderground v.1.15,2013-08-16 12:15:00,
2013-08-16 07:20:00,65.0,62.9,30.01,SSW,200,0.0,2.0,93,0.00,,,0.06,Wunderground v.1.15,2013-08-16 12:20:00,
2013-08-16 07:25:00,65.0,62.9,30.01,SSW,200,1.0,2.0,93,0.00,,,0.06,Wunderground v.1.15,2013-08-16 12:25:00,
2013-08-16 07:35:00,65.2,63.1,30.01,SSW,200,0.0,0.0,93,0.00,,,0.06,Wunderground v.1.15,2013-08-16 12:35:00,
2013-08-16 07:40:00,65.3,63.2,30.01,SSW,200,0.0,0.0,93,0.00,,,0.06,Wunderground v.1.15,2013-08-16 12:40:00,
2013-08-16 07:45:00,65.3,63.2,30.01,SSW,200,0.0,0.0,93,0.00,,,0.06,Wunderground v.1.15,2013-08-16 12:45:00,
2013-08-16 07:55:00,65.4,63.3,30.00,SSW,204,0.0,2.0,93,0.00,,,0.06,Wunderground v.1.15,2013-08-16 12:55:00,
2013-08-16 08:00:00,65.5,63.4,30.00,SSW,204,1.0,1.0,93,0.00,,,0.06,Wunderground v.1.15,2013-08-16 13:00:00,
2013-08-16 08:05:00,65.5,63.4,30.01,SSW,204,1.0,1.0,93,0.00,,,0.06,Wunderground v.1.15,2013-08-16 13:05:00,
2013-08-16 08:10:00,65.6,63.5,30.01,SSW,204,0.0,0.0,93,0.00,,,0.06,Wunderground v.1.15,2013-08-16 13:10:00,
2013-08-16 08:15:00,65.6,63.5,30.01,SSW,204,0.0,0.0,93,0.00,,,0.06,Wunderground v.1.15,2013-08-16 13:15:00,
2013-08-16 08:20:00,65.7,63.6,30.02,SSW,204,0.0,1.0,93,0.00,,,0.06,Wunderground v.1.15,2013-08-16 13:20:00,
2013-08-16 08:25:00,65.7,63.6,30.02,SSW,205,0.0,2.0,93,0.00,,,0.06,Wunderground v.1.15,2013-08-16 13:25:00,
2013-08-16 08:30:00,65.9,63.8,30.03,SSW,207,1.0,1.0,93,0.00,,,0.06,Wunderground v.1.15,2013-08-16 13:30:00,
2013-08-16 08:40:00,66.2,63.8,30.03,WNW,288,1.0,1.0,92,0.00,,,0.06,Wunderground v.1.15,2013-08-16 13:40:00,
2013-08-16 08:45:00,66.3,63.9,30.03,WNW,288,1.0,1.0,92,0.00,,,0.06,Wunderground v.1.15,2013-08-16 13:45:00,
2013-08-16 09:00:00,66.7,64.0,30.04,NW,321,1.0,1.0,91,0.00,,,0.06,Wunderground v.1.15,2013-08-16 14:00:00,
2013-08-16 09:05:00,66.7,64.0,30.04,NW,321,1.0,1.0,91,0.00,,,0.06,Wunderground v.1.15,2013-08-16 14:05:00,
2013-08-16 09:10:00,67.0,64.3,30.04,NNW,346,1.0,2.0,91,0.00,,,0.06,Wunderground v.1.15,2013-08-16 14:10:00,
2013-08-16 09:15:00,67.2,64.5,30.04,North,5,2.0,2.0,91,0.00,,,0.06,Wunderground v.1.15,2013-08-16 14:15:00,
2013-08-16 09:20:00,67.4,64.7,30.04,North,5,1.0,1.0,91,0.00,,,0.06,Wunderground v.1.15,2013-08-16 14:20:00,
2013-08-16 09:25:00,67.4,64.4,30.04,NNE,27,1.0,3.0,90,0.00,,,0.06,Wunderground v.1.15,2013-08-16 14:25:00,
2013-08-16 09:35:00,67.4,64.4,30.03,NE,41,3.0,4.0,90,0.00,,,0.06,Wunderground v.1.15,2013-08-16 14:35:00,
2013-08-16 09:40:00,67.5,64.5,30.03,North,10,2.0,5.0,90,0.00,,,0.06,Wunderground v.1.15,2013-08-16 14:40:00,
2013-08-16 09:45:00,67.6,64.6,30.03,North,10,2.0,5.0,90,0.00,,,0.06,Wunderground v.1.15,2013-08-16 14:45:00,
2013-08-16 09:50:00,67.8,64.8,30.03,NNE,21,2.0,3.0,90,0.00,,,0.06,Wunderground v.1.15,2013-08-16 14:50:00,
2013-08-16 09:55:00,68.1,64.7,30.03,NE,38,3.0,4.0,89,0.00,,,0.06,Wunderground v.1.15,2013-08-16 14:55:00,
2013-08-16 10:00:00,68.4,65.0,30.03,NE,45,3.0,6.0,89,0.00,,,0.06,Wunderground v.1.15,2013-08-16 15:00:00,
2013-08-16 10:05:00,68.4,65.0,30.03,NE,47,4.0,6.0,89,0.00,,,0.06,Wunderground v.1.15,2013-08-16 15:05:00,
2013-08-16 10:10:00,68.8,65.4,30.03,NE,46,5.0,5.0,89,0.00,,,0.06,Wunderground v.1.15,2013-08-16 15:10:00,
2013-08-16 10:20:00,69.2,65.5,30.03,NNE,31,4.0,4.0,88,0.00,,,0.06,Wunderground v.1.15,2013-08-16 15:20:00,
2013-08-16 10:30:00,70.0,66.0,30.04,NNE,15,3.0,4.0,87,0.00,,,0.06,Wunderground v.1.15,2013-08-16 15:30:00,
2013-08-16 10:35:00,70.3,65.9,30.04,NE,41,3.0,5.0,86,0.00,,,0.06,Wunderground v.1.15,2013-08-16 15:35:00,
2013-08-16 10:40:00,70.7,66.0,30.05,NNE,27,4.0,4.0,85,0.00,,,0.06,Wunderground v.1.15,2013-08-16 15:40:00,
2013-08-16 15:55:00,82.5,64.7,30.00,NNE,17,8.0,8.0,55,0.00,,,0.06,Wunderground v.1.15,2013-08-16 20:55:00,
2013-08-16 16:05:00,82.8,65.5,29.99,ENE,64,6.0,7.0,56,0.00,,,0.06,Wunderground v.1.15,2013-08-16 21:05:00,
2013-08-16 16:10:00,83.0,65.2,29.99,NE,38,5.0,5.0,55,0.00,,,0.06,Wunderground v.1.15,2013-08-16 21:10:00,
2013-08-16 16:20:00,82.5,65.2,29.99,NE,51,6.0,6.0,56,0.00,,,0.06,Wunderground v.1.15,2013-08-16 21:20:00,
2013-08-16 16:25:00,82.7,65.4,29.99,ENE,62,6.0,10.0,56,0.00,,,0.06,Wunderground v.1.15,2013-08-16 21:25:00,
2013-08-16 16:30:00,82.5,64.2,29.99,ENE,58,7.0,7.0,54,0.00,,,0.06,Wunderground v.1.15,2013-08-16 21:30:00,
2013-08-16 16:35:00,82.4,64.1,29.99,NNE,32,7.0,7.0,54,0.00,,,0.06,Wunderground v.1.15,2013-08-16 21:35:00,
2013-08-16 16:40:00,82.4,64.6,29.99,NNE,13,6.0,10.0,55,0.00,,,0.06,Wunderground v.1.15,2013-08-16 21:40:00,
2013-08-16 16:50:00,82.2,63.9,29.99,NE,46,6.0,6.0,54,0.00,,,0.06,Wunderground v.1.15,2013-08-16 21:50:00,
2013-08-16 17:00:00,82.5,64.7,29.99,NE,38,6.0,6.0,55,0.00,,,0.06,Wunderground v.1.15,2013-08-16 22:00:00,
2013-08-16 17:05:00,82.8,65.0,29.99,North,5,5.0,6.0,55,0.00,,,0.06,Wunderground v.1.15,2013-08-16 22:05:00,
2013-08-16 17:10:00,82.9,64.5,29.99,NE,46,5.0,8.0,54,0.00,,,0.06,Wunderground v.1.15,2013-08-16 22:10:00,
2013-08-16 17:15:00,82.4,64.6,29.99,ENE,59,6.0,8.0,55,0.00,,,0.06,Wunderground v.1.15,2013-08-16 22:15:00,
2013-08-16 17:25:00,82.7,64.9,29.99,NE,48,6.0,10.0,55,0.00,,,0.06,Wunderground v.1.15,2013-08-16 22:25:00,
2013-08-16 17:30:00,82.1,64.3,29.99,NE,38,6.0,7.0,55,0.00,,,0.06,Wunderground v.1.15,2013-08-16 22:30:00,
2013-08-16 17:35:00,81.8,64.6,29.99,NE,40,6.0,8.0,56,0.00,,,0.06,Wunderground v.1.15,2013-08-16 22:35:00,
2013-08-16 17:40:00,81.6,64.9,29.99,NNE,24,6.0,6.0,57,0.00,,,0.06,Wunderground v.1.15,2013-08-16 22:40:00,
2013-08-16 17:45:00,81.7,65.0,29.99,East,86,6.0,6.0,57,0.00,,,0.06,Wunderground v.1.15,2013-08-16 22:45:00,
2013-08-16 17:50:00,81.6,64.9,29.99,East,95,6.0,10.0,57,0.00,,,0.06,Wunderground v.1.15,2013-08-16 22:50:00,
2013-08-16 18:00:00,81.4,64.7,29.99,NE,54,7.0,8.0,57,0.00,,,0.06,Wunderground v.1.15,2013-08-16 23:00:00,
2013-08-16 18:10:00,81.0,64.3,30.00,East,88,8.0,8.0,57,0.00,,,0.06,Wunderground v.1.15,2013-08-16 23:10:00,
2013-08-16 18:15:00,80.9,64.7,30.00,NE,52,6.0,8.0,58,0.00,,,0.06,Wunderground v.1.15,2013-08-16 23:15:00,
2013-08-16 18:20:00,81.0,64.8,29.99,East,90,6.0,7.0,58,0.00,,,0.06,Wunderground v.1.15,2013-08-16 23:20:00,
2013-08-16 18:30:00,80.9,64.7,29.99,ESE,103,7.0,7.0,58,0.00,,,0.06,Wunderground v.1.15,2013-08-16 23:30:00,
2013-08-16 18:35:00,81.0,64.3,30.00,NNE,29,6.0,7.0,57,0.00,,,0.06,Wunderground v.1.15,2013-08-16 23:35:00,
2013-08-16 18:45:00,81.2,64.0,30.00,ENE,78,5.0,5.0,56,0.00,,,0.06,Wunderground v.1.15,2013-08-16 23:45:00,
2013-08-16 18:55:00,80.4,64.8,30.00,NE,35,6.0,6.0,59,0.00,,,0.06,Wunderground v.1.15,2013-08-16 23:55:00,
2013-08-16 19:00:00,80.4,65.2,30.00,East,86,5.0,5.0,60,0.00,,,0.06,Wunderground v.1.15,2013-08-17 00:00:00,
2013-08-16 19:05:00,80.4,65.7,30.00,ENE,76,5.0,5.0,61,0.00,,,0.06,Wunderground v.1.15,2013-08-17 00:05:00,
2013-08-16 19:10:00,80.5,65.8,30.00,NE,37,5.0,5.0,61,0.00,,,0.06,Wunderground v.1.15,2013-08-17 00:10:00,
2013-08-16 19:15:00,80.5,65.8,30.00,East,93,4.0,9.0,61,0.00,,,0.06,Wunderground v.1.15,2013-08-17 00:15:00,
2013-08-16 19:20:00,80.3,65.1,30.00,East,80,5.0,5.0,60,0.00,,,0.06,Wunderground v.1.15,2013-08-17 00:20:00,
2013-08-16 19:25:00,80.4,65.2,30.00,ENE,63,4.0,5.0,60,0.00,,,0.06,Wunderground v.1.15,2013-08-17 00:25:00,
2013-08-16 19:30:00,80.1,65.4,30.00,NNE,26,4.0,7.0,61,0.00,,,0.06,Wunderground v.1.15,2013-08-17 00:30:00,
2013-08-16 19:35:00,80.0,65.8,30.00,ENE,70,4.0,7.0,62,0.00,,,0.06,Wunderground v.1.15,2013-08-17 00:35:00,
2013-08-16 19:40:00,79.7,65.5,30.00,NNE,15,5.0,5.0,62,0.00,,,0.06,Wunderground v.1.15,2013-08-17 00:40:00,
2013-08-16 19:50:00,79.5,65.3,30.01,NE,49,3.0,5.0,62,0.00,,,0.06,Wunderground v.1.15,2013-08-17 00:50:00,
2013-08-16 19:55:00,79.3,65.1,30.01,NE,35,4.0,5.0,62,0.00,,,0.06,Wunderground v.1.15,2013-08-17 00:55:00,
2013-08-16 20:00:00,79.3,65.6,30.01,ENE,59,3.0,3.0,63,0.00,,,0.06,Wunderground v.1.15,2013-08-17 01:00:00,
2013-08-16 20:05:00,79.2,65.5,30.01,ENE,59,3.0,3.0,63,0.00,,,0.06,Wunderground v.1.15,2013-08-17 01:05:00,
2013-08-16 20:10:00,79.1,65.4,30.01,East,79,2.0,3.0,63,0.00,,,0.06,Wunderground v.1.15,2013-08-17 01:10:00,
2013-08-16 20:15:00,78.7,65.5,30.01,ENE,61,3.0,4.0,64,0.00,,,0.06,Wunderground v.1.15,2013-08-17 01:15:00,
2013-08-16 20:20:00,78.5,65.3,30.01,NE,43,4.0,4.0,64,0.00,,,0.06,Wunderground v.1.15,2013-08-17 01:20:00,
2013-08-16 20:30:00,78.1,65.8,30.02,NE,39,3.0,3.0,66,0.00,,,0.06,Wunderground v.1.15,2013-08-17 01:30:00,
2013-08-16 20:35:00,77.9,65.6,30.02,ENE,61,4.0,4.0,66,0.00,,,0.06,Wunderground v.1.15,2013-08-17 01:35:00,
2013-08-16 20:40:00,77.8,66.0,30.02,NE,44,3.0,4.0,67,0.00,,,0.06,Wunderground v.1.15,2013-08-17 01:40:00,
2013-08-16 20:45:00,77.6,65.8,30.02,NE,44,4.0,4.0,67,0.00,,,0.06,Wunderground v.1.15,2013-08-17 01:45:00,
2013-08-16 20:55:00,77.2,65.8,30.03,NE,42,4.0,4.0,68,0.00,,,0.06,Wunderground v.1.15,2013-08-17 01:55:00,
2013-08-16 21:00:00,77.1,65.7,30.03,NE,55,4.0,4.0,68,0.00,,,0.06,Wunderground v.1.15,2013-08-17 02:00:00,
2013-08-16 21:05:00,77.1,65.7,30.03,NE,54,3.0,4.0,68,0.00,,,0.06,Wunderground v.1.15,2013-08-17 02:05:00,
2013-08-16 21:10:00,77.1,65.7,30.03,ENE,74,3.0,3.0,68,0.00,,,0.06,Wunderground v.1.15,2013-08-17 02:10:00,
2013-08-16 21:20:00,76.9,65.5,30.03,NE,38,3.0,3.0,68,0.00,,,0.06,Wunderground v.1.15,2013-08-17 02:20:00,
2013-08-16 21:25:00,76.8,65.9,30.03,ENE,69,3.0,3.0,69,0.00,,,0.06,Wunderground v.1.15,2013-08-17 02:25:00,
2013-08-16 21:30:00,76.7,65.8,30.04,NE,56,4.0,6.0,69,0.00,,,0.06,Wunderground v.1.15,2013-08-17 02:30:00,
2013-08-16 21:35:00,76.5,65.6,30.04,NE,42,5.0,6.0,69,0.00,,,0.06,Wunderground v.1.15,2013-08-17 02:35:00,
2013-08-16 21:40:00,76.3,65.8,30.05,East,81,5.0,5.0,70,0.00,,,0.06,Wunderground v.1.15,2013-08-17 02:40:00,
2013-08-16 21:45:00,76.1,66.0,30.05,NE,38,5.0,7.0,71,0.00,,,0.06,Wunderground v.1.15,2013-08-17 02:45:00,
2013-08-16 21:55:00,75.7,66.0,30.05,NE,46,5.0,6.0,72,0.00,,,0.06,Wunderground v.1.15,2013-08-17 02:55:00,
2013-08-16 22:00:00,75.4,66.1,30.05,NE,43,5.0,7.0,73,0.00,,,0.06,Wunderground v.1.15,2013-08-17 03:00:00,
2013-08-16 22:05:00,75.1,65.9,30.05,ENE,60,6.0,7.0,73,0.00,,,0.06,Wunderground v.1.15,2013-08-17 03:05:00,
2013-08-16 22:10:00,74.9,66.1,30.06,NE,43,6.0,6.0,74,0.00,,,0.06,Wunderground v.1.15,2013-08-17 03:10:00,
2013-08-16 22:15:00,74.7,65.9,30.06,ENE,74,5.0,9.0,74,0.00,,,0.06,Wunderground v.1.15,2013-08-17 03:15:00,
2013-08-16 22:20:00,74.6,65.8,30.06,ENE,74,6.0,7.0,74,0.00,,,0.06,Wunderground v.1.15,2013-08-17 03:20:00,
2013-08-16 22:25:00,74.4,65.6,30.06,NNE,29,6.0,7.0,74,0.00,,,0.06,Wunderground v.1.15,2013-08-17 03:25:00,
2013-08-16 22:30:00,74.3,65.5,30.06,NE,52,6.0,7.0,74,0.00,,,0.06,Wunderground v.1.15,2013-08-17 03:30:00,
2013-08-16 22:40:00,74.1,65.3,30.06,ENE,61,5.0,5.0,74,0.00,,,0.06,Wunderground v.1.15,2013-08-17 03:40:00,
2013-08-16 22:45:00,73.9,65.5,30.06,NE,40,5.0,5.0,75,0.00,,,0.06,Wunderground v.1.15,2013-08-17 03:45:00,
2013-08-16 22:50:00,73.7,65.3,30.06,NE,53,6.0,6.0,75,0.00,,,0.06,Wunderground v.1.15,2013-08-17 03:50:00,
2013-08-16 23:00:00,73.4,65.4,30.06,NNE,28,4.0,4.0,76,0.00,,,0.06,Wunderground v.1.15,2013-08-17 04:00:00,
2013-08-16 23:05:00,73.3,65.3,30.06,ENE,67,4.0,4.0,76,0.00,,,0.06,Wunderground v.1.15,2013-08-17 04:05:00,
2013-08-16 23:10:00,73.1,65.1,30.07,NE,35,3.0,3.0,76,0.00,,,0.06,Wunderground v.1.15,2013-08-17 04:10:00,
2013-08-16 23:15:00,73.0,65.0,30.07,NE,45,3.0,7.0,76,0.00,,,0.06,Wunderground v.1.15,2013-08-17 04:15:00,
2013-08-16 23:20:00,73.0,65.0,30.07,East,99,4.0,4.0,76,0.00,,,0.06,Wunderground v.1.15,2013-08-17 04:20:00,
2013-08-16 23:25:00,72.8,64.8,30.07,East,98,5.0,7.0,76,0.00,,,0.06,Wunderground v.1.15,2013-08-17 04:25:00,
2013-08-16 23:30:00,72.7,65.1,30.08,ESE,115,5.0,5.0,77,0.00,,,0.06,Wunderground v.1.15,2013-08-17 04:30:00,
2013-08-16 23:35:00,72.6,65.0,30.08,ENE,69,4.0,5.0,77,0.00,,,0.06,Wunderground v.1.15,2013-08-17 04:35:00,
2013-08-16 23:40:00,72.5,64.9,30.08,East,84,3.0,5.0,77,0.00,,,0.06,Wunderground v.1.15,2013-08-17 04:40:00,
2013-08-16 23:45:00,72.3,64.7,30.08,East,87,4.0,6.0,77,0.00,,,0.06,Wunderground v.1.15,2013-08-17 04:45:00,
2013-08-16 23:50:00,72.2,64.2,30.08,East,79,5.0,5.0,76,0.00,,,0.06,Wunderground v.1.15,2013-08-17 04:50:00,
2013-08-16 23:55:00,72.1,64.1,30.08,ESE,107,4.0,5.0,76,0.00,,,0.06,Wunderground v.1.15,2013-08-17 04:55:00,